Location: Newark
(48.8833°N, 0.9236°W)
Time: 19:25:56
(UTC+00:00)

Transit 4A - Pass Details

Date: 27 November 2019
Orbit: 870 x 975 km, 66.8° (Epoch: 05 December)

Event Time Altitude Azimuth Distance (km) Brightness Sun altitude
Exits shadow 04:51:09 62° 309° (NW) 988 7.7 -25.4°
Maximum altitude 04:52:10 81° 238° (WSW) 893 7.6 -25.3°
Drops below altitude 10° 04:57:58 10° 151° (SSE) 2,511 10.6 -24.3°
Sets 05:00:25 0° 151° (SSE) 3,444 11.3 -23.9°
